Погода в Танги-Чу

Россия / Чеченская Республика     43°04′18″N   45°30′51″E
темп.,
°C
ветер,
м/с
пор.,
м/с
влажн.,
%
обл.,
%
осадки,
мм/ч
давл.,
гПа
погр.,
м
14 апреля, ср
ср1400:00+6ююз11896 1.3 101812
03:00+6зюз119073 1.4 101611
06:00+6ююз119128 0.0 101725
09:00+9сз347791 0.1 1018881
12:00+9зсз2473100 0.4 1018900
15:00+10юв0272100 2.8 1018721
18:00+9ююз017896 0.3 1018106
21:00+7ююз228375 0.3 101923
15 апреля, чт
чт1500:00+6ююз22763 0.0 101928
03:00+5ююз22731 0.0 101926
06:00+5ююз22643 0.0 102031
09:00+12ссв11500 0.0 1018758
12:00+16с33396 0.0 10161508
15:00+16ссв334287 0.0 10161820
18:00+13ссв1255100 0.1 101788
21:00+10ююз2164100 0.1 101812
16 апреля, пт
пт1600:00+9ююз226750 0.0 101824
03:00+8ююз22618 0.0 101820
06:00+8ююз22555 0.0 101827
09:00+14св224482 0.0 1018719
12:00+17св434131 0.0 10161593
15:00+17св434678 0.3 10161439
18:00+14св24634 0.4 1016150
21:00+11ююз22727 0.5 101728
17 апреля, сб
сб1700:00+10ююз326559 0.0 101830
03:00+9ююз226327 0.0 101822
06:00+9ююз1163100 0.0 101912
09:00+13с2364100 0.0 1020937
12:00+11ссз3380100 0.2 1021898
15:00+9с1291100 1.1 1022314
18:00+9с1296100 1.5 1023179
21:00+8с1198100 2.2 1023158
18 апреля, вс
вс1800:00+8всв1198100 0.1 1022156
03:00+8ссв0198100 0.1 102195
06:00+8св1199100 0.0 1020275
09:00+8св1197100 0.3 1020204
12:00+9ссв2295100 0.2 1020402
15:00+11всв228994 0.4 1018365
18:00+10ю0193100 0.0 101982
21:00+9з119343 0.1 101910